Regional Weather Roundup
Issued by NWS

Home | Current Version | Previous Version | Text Only | Print | Product List | Glossary On
Versions: 1 2 3 4 5 6 7 8 9 10 11 12 13 14 15 16 17 18 19 20 21 22 23 24 25 26 27 28 29 30 31 32 33 34 35 36 37 38 39 40 41 42 43 44 45 46 47 48 49 50
021
ASUS45 KTFX 120810
RWRMT
MONTANA REGIONAL WEATHER ROUNDUP
NATIONAL WEATHER SERVICE GREAT FALLS MT
100 AM MST FRI FEB 12 2016

NOTE: "FAIR" INDICATES FEW OR NO CLOUDS BELOW 12000 FEET WITH NO
SIGNIFICANT WEATHER AND/OR OBSTRUCTIONS TO VISIBILITY.

MTZ001>007-043-120900-
WEST OF THE DIVIDE

CITY           SKY/WX    TMP DP  RH WIND       PRES   REMARKS
KALISPELL      CLOUDY    34  31  88 CALM      30.23S
MISSOULA       LGT RAIN  37  34  89 CALM      30.27S
BUTTE          LGT RAIN  34  31  88 NE6       30.26S FOG     WCI  29
MULLAN PASS    LGT RAIN  33  33 100 S6        30.20F VSB 1/4 WCI  28
ANACONDA         N/A     39  34  81 S6        30.24F
DEER LODGE       N/A     37  30  75 CALM      30.26S
HAMILTON         N/A     43  37  81 CALM      30.24S
PLAINS           N/A     40  36  86 CALM      30.23F
THOMPSON FALLS   N/A     39  37  92 CALM      30.27F
$$

MTZ008-052>055-120900-
SOUTHWEST MONTANA

CITY           SKY/WX    TMP DP  RH WIND       PRES   REMARKS
BOZEMAN        CLOUDY    34  31  88 CALM      30.24F
DILLON         CLOUDY    39  32  76 SW15      30.25S WCI  31
ENNIS          CLOUDY    37  32  81 S17       30.33R WCI  28
TWIN BRIDGES     N/A     36  28  73 E6        30.22R WCI  31
$$

MTZ009-010-012-014-046-048-049-054-120900-
EAST SLOPES AND CENTRAL MONTANA

CITY           SKY/WX    TMP DP  RH WIND       PRES   REMARKS
CUT BANK       PTCLDY    32  27  81 E5        30.24F
GREAT FALLS    CLOUDY    31  27  85 E3        30.24F
MALMSTROM AFB  CLOUDY    30  28  92 E1        30.26F
HELENA         CLOUDY    37  31  78 CALM      30.24S
CHOTEAU          N/A     32  30  93 CALM      30.26S
CONRAD           N/A     25  24  96 MISG      30.24S
$$

MTZ011-013-016-021-045-047-050-051-120900-
NORTH CENTRAL MONTANA

CITY           SKY/WX    TMP DP  RH WIND       PRES   REMARKS
HAVRE          CLOUDY    29  28  96 CALM      30.30S
LEWISTOWN      CLOUDY    33  28  81 SE3       30.25F
N BAR RANCH      N/A     36  28  75 CALM      30.26F
CHINOOK          N/A     28  28 100 CALM      30.31R
$$

MTZ017>020-022>027-061-062-120900-
NORTHEAST MONTANA

CITY           SKY/WX    TMP DP  RH WIND       PRES   REMARKS
GLASGOW        CLOUDY    27  22  81 E9        30.34R WCI  18
JORDAN           N/A     32  30  92 CALM      30.29F
SIDNEY         CLOUDY    21  16  79 NE6       30.37R WCI  14
WOLF POINT     CLOUDY    24  17  74 E10       30.38R WCI  14
PLENTYWOOD       N/A     10   7  85 NE13      30.38S WCI  -5
POPLAR           N/A     19  16  86 NE7       30.40R WCI  10
SCOBEY           N/A     15   3  59 N8        30.32R WCI   4
$$

MTZ028>42-056>058-120900-
SOUTHCENTRAL AND SOUTHEAST MONTANA

CITY           SKY/WX    TMP DP  RH WIND       PRES   REMARKS
BAKER          CLOUDY    26  21  81 NW6       30.28R WCI  19
BILLINGS       CLOUDY    32  27  81 NW6       30.26S WCI  26
LIVINGSTON     CLOUDY    41  24  51 E8        30.24S
MILES CITY     CLOUDY    31  27  85 CALM      30.30S
EKALAKA          N/A     26  22  85 NW6       30.21R WCI  19
FORSYTH          N/A     34  30  86 S3        30.31S
LAUREL           N/A     36  23  59 CALM      30.22S
ROUNDUP          N/A     33  27  79 CALM      30.16R
$$

REGIONAL REPORTS...DAKOTAS

CITY           SKY/WX    TMP DP  RH WIND       PRES   REMARKS
WILLISTON      CLOUDY    18  12  77 N13       30.39R WCI   5
MINOT          CLOUDY     8  -1  66 N10       30.39R WCI  -6
DICKINSON      CLOUDY    19  15  84 N8        30.27S WCI   9
BEACH          CLOUDY    19  19 100 N7        30.33R WCI  10
CROSBY         MOCLDY     9   5  85 N7        30.43R WCI  -3
TIOGA          MOCLDY    10   9  92 N10       30.41R WCI  -3
WATFORD CITY   FLURRIES  18  16  93 N8        30.36R WCI   7
BISMARCK       CLOUDY    20  14  77 NW3       30.34R
GRAND FORKS    CLEAR      4  -4  69 N10       30.37R WCI -11
FARGO          CLOUDY     8   1  73 N13       30.33R WCI  -8
BUFFALO SD       N/A     28  23  81 NW14      30.19S WCI  17
RAPID CITY     CLOUDY    31  27  85 N3        30.24S
$$

REGIONAL REPORTS...WYOMING/IDAHO/WASHINGTON

CITY           SKY/WX    TMP DP  RH WIND       PRES   REMARKS
GILLETTE       CLEAR     30  24  78 CALM      30.24S
SHERIDAN       CLOUDY    35  25  66 SE6       30.25S WCI  30
BUFFALO WY     CLEAR     40  25  55 NW10      30.25S
CODY           CLOUDY    39  18  41 S3        30.24S
YELLOWSTONE LA   N/A     30  26  85 CALM      30.35F
IDAHO FALLS    CLOUDY    27  23  85 CALM      30.36F
SALMON         CLOUDY    28  27  93 CALM      30.34F
BOISE          PTCLDY    33  29  85 CALM      30.32F
SPOKANE        LGT RAIN  39  37  92 NE7       30.21F
$$

REGIONAL REPORTS...ALBERTA

CITY           SKY/WX    TMP DP  RH WIND       PRES   REMARKS
EDMONTON       CLOUDY    16   9  73 E12       30.35F WCI   3
CALGARY        CLOUDY    30  28  93 SE7       30.24F FOG     WCI  23
LETHBRIDGE     MOCLDY    28  28 100 NE7       30.27F FOG     WCI  21
MEDICINE HAT   CLOUDY    28  27  93 NE12      30.32R WCI  18
WATERTON GATE    N/A     34  28  80 NE3         N/A
CARDSTON         N/A     32  28  86 SW3         N/A
MILK RIVER       N/A     27  25  93 S1          N/A
$$

REGIONAL REPORTS...SASKATCHEWAN

CITY           SKY/WX    TMP DP  RH WIND       PRES   REMARKS
SWIFT CURRENT  FLURRIES  10  10 100 E12G17    30.35R WCI  -4
REGINA         CLEAR      1  -2  85 NW5       30.47R
SASKATOON      CLEAR      0  -4  85 NE7       30.54R WCI -13
CYPRESS HILLS    N/A     25  23  93 N5          N/A
VAL MARIE        N/A     19  18  93 NE10        N/A  WCI   8
ROCKGLEN         N/A     12   9  85 NE6         N/A  WCI   3
$$




USA.gov is the U.S. government's official web portal to all federal, state and local government web resources and services.